Amateur Radio Satellites - All Passes

Search period start: 18 May 2013 12:31
Search period end: 19 May 2013 12:31
Location: eljas, 40.1958°N, 6.8661°W

Satellite Date Start Highest point End Downlink Frequencies (MHz)
Time Altitude Azimuth
SO-50 18 May 12:35:00 12:39:28 37° 309° (NW) 12:43:53 436.795 FM
JAS-1B 18 May 12:36:10 12:37:41 11° 309° (NW) 12:39:10 435.800 - 435.900 CW/SSB
KITSAT 1 18 May 12:42:56 12:48:58 24° 256° (WSW) 12:55:01 435.175 FM
Oscar 11 18 May 13:14:34 13:18:13 27° 291° (WNW) 13:21:52 145.825 FM, Beacon 2401.500 USB
OPAL 18 May 13:17:44 13:22:44 67° 289° (WNW) 13:27:39 ?
MaSat-1 18 May 13:36:25 13:39:23 23° 53° (NE) 13:41:51 437.345 MHz
ISS 18 May 13:37:08 13:40:13 33° 224° (SW) 13:43:17 145.800 FM
JAS-2 18 May 13:55:28 14:00:50 23° 301° (WNW) 14:05:47 435.800 - 435.900 CW/SSB, 435.910 FM
Oscar 19 18 May 13:59:28 14:01:32 12° 59° (ENE) 14:03:36 437.125 CW, 437.150 USB
HO-68 18 May 14:11:00 14:15:06 17° 306° (NW) 14:19:13 435.675 MHz FM
UOSAT-12 18 May 14:26:35 14:31:04 70° 120° (ESE) 14:35:36 437.025 FM, 437.400 FM
AO-27 18 May 14:32:46 14:36:40 22° 64° (ENE) 14:40:36 436.795 MHz FM
Oscar 16 18 May 14:34:57 14:39:27 31° 67° (ENE) 14:43:59 437.025 USB, Beacon 2401.1428
ITAMSAT 1 18 May 14:40:24 14:44:34 25° 66° (ENE) 14:48:45 435.822 SSB
MaSat-1 18 May 15:19:32 15:21:04 13° 260° (W) 15:22:29 437.345 MHz
Uribyol 2 18 May 15:21:32 15:26:38 63° 73° (ENE) 15:31:46 436.500 FM
Oscar 19 18 May 15:34:55 15:40:07 86° 256° (WSW) 15:45:22 437.125 CW, 437.150 USB
PANSAT 18 May 16:03:34 16:05:02 12° 170° (S) 16:06:31 not established
Uosat F 18 May 16:07:39 16:11:40 25° 66° (ENE) 16:15:42 435.120 FM
Gurwin Techsat 1B 18 May 16:08:22 16:12:15 21° 64° (ENE) 16:16:09 435.225 FM
UOSAT-12 18 May 16:08:49 16:11:43 17° 318° (NW) 16:14:39 437.025 FM, 437.400 FM
AO-27 18 May 16:10:57 16:15:53 45° 261° (W) 16:20:52 436.795 MHz FM
Oscar 16 18 May 16:14:09 16:18:44 32° 264° (W) 16:23:22 437.025 USB, Beacon 2401.1428
AO-Echo 18 May 16:18:18 16:23:12 70° 75° (ENE) 16:28:00 ?
ITAMSAT 1 18 May 16:19:03 16:23:51 39° 262° (W) 16:28:42 435.822 SSB
Uribyol 2 18 May 17:03:42 17:06:33 15° 269° (W) 17:09:26 436.500 FM
Saudisat 1A 18 May 17:18:48 17:23:19 57° 55° (NE) 17:27:42 436.775 MHz
RS-15 18 May 17:20:00 17:29:00 26° 102° (ESE) 17:37:44 29.354 - 29.394 USB, Beacon 29.352 USB
TMSAT-1 18 May 17:27:42 17:32:57 74° 74° (ENE) 17:38:16 436.925 FM
AO-7 18 May 17:38:03 17:45:46 46° 63° (ENE) 17:53:32 29.400 - 29.500 MHz
PANSAT 18 May 17:42:31 17:44:41 14° 182° (S) 17:46:50 not established
Uosat F 18 May 17:45:40 17:50:17 37° 262° (W) 17:54:55 435.120 FM
Gurwin Techsat 1B 18 May 17:46:44 17:51:51 50° 260° (W) 17:57:01 435.225 FM
AO-Echo 18 May 18:00:33 18:02:26 12° 270° (W) 18:04:18 ?
PCSat 18 May 18:07:27 18:11:26 20° 46° (NE) 18:15:23 145.825 MHz
Sapphire 18 May 18:39:40 18:44:32 32° 52° (NE) 18:49:22 437.095 MHz 1200 baud AX-25 AFSK
Saudisat 1A 18 May 18:59:56 19:02:31 15° 251° (WSW) 19:05:04 436.775 MHz
TMSAT-1 18 May 19:11:05 19:13:26 13° 271° (W) 19:15:48 436.925 FM
SO-50 18 May 19:27:28 19:31:04 22° 45° (NE) 19:34:37 436.795 FM
RS-15 18 May 19:27:58 19:40:06 85° 302° (WNW) 19:51:44 29.354 - 29.394 USB, Beacon 29.352 USB
AO-7 18 May 19:30:56 19:38:34 41° 261° (W) 19:46:18 29.400 - 29.500 MHz
JAS-1B 18 May 19:36:21 19:42:27 21° 58° (ENE) 19:48:02 435.800 - 435.900 CW/SSB
PCSat 18 May 19:49:58 19:55:22 67° 245° (WSW) 20:00:43 145.825 MHz
STRAND 1 18 May 20:22:36 20:27:23 38° 98° (E) 20:32:09 ?
Sapphire 18 May 20:23:02 20:27:58 37° 250° (WSW) 20:32:53 437.095 MHz 1200 baud AX-25 AFSK
Hamsat 18 May 20:46:52 20:51:04 90° 256° (WSW) 20:55:19 145.90 MHz
HO-68 18 May 21:06:01 21:09:18 14° 52° (NE) 21:12:36 435.675 MHz FM
SO-50 18 May 21:07:35 21:11:54 44° 244° (WSW) 21:16:09 436.795 FM
SO-67 18 May 21:15:15 21:18:46 60° 76° (ENE) 21:22:18 435.3500 MHz FM
JAS-1B 18 May 21:22:29 21:32:06 85° 74° (ENE) 21:40:25 435.800 - 435.900 CW/SSB
RS-15 18 May 21:44:18 21:54:22 31° 328° (NNW) 22:04:06 29.354 - 29.394 USB, Beacon 29.352 USB
STRAND 1 18 May 22:02:13 22:06:23 26° 294° (WNW) 22:10:33 ?
JAS-2 18 May 22:19:28 22:26:03 33° 63° (ENE) 22:32:49 435.800 - 435.900 CW/SSB, 435.910 FM
Oscar 11 18 May 22:33:50 22:37:01 21° 67° (ENE) 22:40:14 145.825 FM, Beacon 2401.500 USB
HO-68 18 May 22:48:40 22:55:45 71° 71° (ENE) 23:02:52 435.675 MHz FM
OPAL 18 May 22:54:26 22:58:40 26° 64° (ENE) 23:02:53 ?
UOSAT-12 18 May 22:56:52 23:01:21 51° 54° (NE) 23:05:50 437.025 FM, 437.400 FM
JAS-1B 18 May 23:16:23 23:23:07 22° 269° (W) 23:29:21 435.800 - 435.900 CW/SSB
JAS-2 19 May 00:03:14 00:10:36 56° 261° (W) 00:18:20 435.800 - 435.900 CW/SSB, 435.910 FM
RS-15 19 May 00:04:25 00:12:03 19° 3° (N) 00:19:29 29.354 - 29.394 USB, Beacon 29.352 USB
Oscar 11 19 May 00:09:06 00:13:02 34° 263° (W) 00:16:59 145.825 FM, Beacon 2401.500 USB
OPAL 19 May 00:32:28 00:37:20 40° 260° (W) 00:42:13 ?
UOSAT-12 19 May 00:38:05 00:41:08 18° 250° (WSW) 00:44:10 437.025 FM, 437.400 FM
HO-68 19 May 00:38:59 00:44:01 21° 268° (W) 00:49:06 435.675 MHz FM
KITSAT 1 19 May 01:13:33 01:21:20 56° 113° (ESE) 01:29:10 435.175 FM
RS-15 19 May 02:19:08 02:29:13 36° 37° (NE) 02:38:58 29.354 - 29.394 USB, Beacon 29.352 USB
Oscar 16 19 May 02:49:58 02:51:01 11° 88° (E) 02:52:04 437.025 USB, Beacon 2401.1428
KITSAT 1 19 May 03:09:43 03:17:02 37° 313° (NW) 03:24:26 435.175 FM
Uribyol 2 19 May 03:35:36 03:39:48 24° 94° (E) 03:43:58 436.500 FM
Oscar 19 19 May 03:47:35 03:52:19 35° 97° (E) 03:57:01 437.125 CW, 437.150 USB
MaSat-1 19 May 04:05:21 04:12:29 57° 111° (ESE) 04:18:32 437.345 MHz
AO-40 19 May 04:09:13 05:38:36 31° 236° (SW) 09:25:11 Beacon 2401.320
AO-27 19 May 04:24:17 04:29:31 69° 102° (ESE) 04:34:42 436.795 MHz FM
Oscar 16 19 May 04:25:48 04:31:01 84° 285° (WNW) 04:36:10 437.025 USB, Beacon 2401.1428
AO-Echo 19 May 04:26:47 04:30:28 22° 94° (E) 04:34:10 ?
RS-15 19 May 04:31:36 04:42:40 76° 243° (WSW) 04:53:28 29.354 - 29.394 USB, Beacon 29.352 USB
ITAMSAT 1 19 May 04:32:04 04:37:19 79° 103° (ESE) 04:42:32 435.822 SSB
ISS 19 May 04:44:41 04:45:44 11° 128° (SE) 04:46:47 145.800 FM
KITSAT 1 19 May 05:12:10 05:15:18 12° 340° (NNW) 05:18:27 435.175 FM
Uribyol 2 19 May 05:14:32 05:19:24 41° 290° (WNW) 05:24:16 436.500 FM
Oscar 19 19 May 05:27:12 05:31:31 28° 293° (WNW) 05:35:49 437.125 CW, 437.150 USB
AO-7 19 May 05:43:10 05:46:24 13° 88° (E) 05:49:37 29.400 - 29.500 MHz
TMSAT-1 19 May 05:44:36 05:49:18 31° 96° (E) 05:53:57 436.925 FM
MaSat-1 19 May 05:48:54 05:54:54 29° 304° (WNW) 06:00:03 437.345 MHz
Uosat F 19 May 05:53:31 05:58:33 70° 102° (ESE) 06:03:33 435.120 FM
Gurwin Techsat 1B 19 May 06:03:20 06:08:40 71° 102° (ESE) 06:13:57 435.225 FM
AO-Echo 19 May 06:05:03 06:09:21 36° 290° (WNW) 06:13:43 ?
AO-27 19 May 06:05:27 06:08:27 16° 299° (WNW) 06:11:28 436.795 MHz FM
Oscar 16 19 May 06:08:17 06:09:32 11° 302° (WNW) 06:10:47 437.025 USB, Beacon 2401.1428
ITAMSAT 1 19 May 06:13:38 06:16:08 14° 300° (WNW) 06:18:39 435.822 SSB
ISS 19 May 06:18:40 06:21:59 77° 324° (NW) 06:25:21 145.800 FM
RS-15 19 May 06:47:25 06:52:55 15° 263° (W) 06:58:23 29.354 - 29.394 USB, Beacon 29.352 USB
KITSAT 1 19 May 07:13:58 07:15:23 11° 13° (NNE) 07:16:48 435.175 FM
TMSAT-1 19 May 07:24:30 07:29:11 32° 292° (WNW) 07:33:51 436.925 FM
Saudisat 1A 19 May 07:27:03 07:30:03 18° 110° (ESE) 07:33:05 436.775 MHz
AO-7 19 May 07:32:06 07:40:29 73° 106° (ESE) 07:48:49 29.400 - 29.500 MHz
Uosat F 19 May 07:34:08 07:36:45 14° 299° (WNW) 07:39:22 435.120 FM
STRAND 1 19 May 07:38:06 07:43:02 53° 72° (ENE) 07:47:59 ?
Gurwin Techsat 1B 19 May 07:44:59 07:48:01 16° 299° (WNW) 07:51:03 435.225 FM
ISS 19 May 07:56:50 07:59:10 17° 342° (NNW) 08:01:30 145.800 FM
Hamsat 19 May 08:34:58 08:37:54 18° 93° (E) 08:40:51 145.90 MHz
PCSat 19 May 08:50:12 08:53:33 17° 104° (ESE) 08:56:56 145.825 MHz
Saudisat 1A 19 May 09:04:54 09:09:20 51° 306° (NW) 09:13:51 436.775 MHz
KITSAT 1 19 May 09:07:29 09:14:14 28° 41° (NE) 09:20:57 435.175 FM
JAS-1B 19 May 09:11:51 09:16:04 19° 90° (E) 09:20:02 435.800 - 435.900 CW/SSB
STRAND 1 19 May 09:19:11 09:22:32 18° 268° (W) 09:25:54 ?
Sapphire 19 May 09:21:21 09:26:02 31° 109° (ESE) 09:30:45 437.095 MHz 1200 baud AX-25 AFSK
AO-7 19 May 09:25:58 09:32:31 27° 305° (NW) 09:39:04 29.400 - 29.500 MHz
ISS 19 May 09:35:36 09:36:57 12° 3° (N) 09:38:18 145.800 FM
Hamsat 19 May 10:10:04 10:14:07 39° 288° (WNW) 10:18:11 145.90 MHz
SO-67 19 May 10:15:56 10:19:32 90° 102° (ESE) 10:23:07 435.3500 MHz FM
HO-68 19 May 10:20:26 10:22:52 12° 88° (E) 10:25:17 435.675 MHz FM
PCSat 19 May 10:31:03 10:36:25 64° 301° (WNW) 10:41:49 145.825 MHz
JAS-1B 19 May 11:01:15 11:07:20 53° 290° (WNW) 11:12:50 435.800 - 435.900 CW/SSB
KITSAT 1 19 May 11:02:22 11:10:31 80° 243° (WSW) 11:18:36 435.175 FM
Sapphire 19 May 11:04:23 11:09:21 37° 307° (NW) 11:14:23 437.095 MHz 1200 baud AX-25 AFSK
ISS 19 May 11:11:55 11:14:39 22° 23° (NNE) 11:17:22 145.800 FM
JAS-2 19 May 11:15:29 11:21:08 26° 90° (E) 11:26:16 435.800 - 435.900 CW/SSB, 435.910 FM
SO-50 19 May 11:21:47 11:26:34 68° 119° (ESE) 11:31:17 436.795 FM
Oscar 11 19 May 11:57:16 12:01:26 43° 99° (E) 12:05:35 145.825 FM, Beacon 2401.500 USB
HO-68 19 May 12:04:24 12:11:36 77° 105° (ESE) 12:18:46 435.675 MHz FM
PCSat 19 May 12:18:56 12:20:57 12° 322° (NW) 12:22:58 145.825 MHz

Developed and maintained by Chris Peat, Heavens-Above GmbH. Please read the updated FAQ before sending e-mail. Imprint. DLR
